Change the Weather History Date:

Monday, November 12, 2012

  Actual Average Record
Temperature  
Mean Temperature 49 °F 50 °F  
Max Temperature 65 °F 59 °F 73 °F (1985)
Min Temperature 33 °F 41 °F 19 °F (1995)
Degree Days  
Heating Degree Days 16 15  
Month to date heating degree days 206 162  
Since 1 July heating degree days 572 459  
Cooling Degree Days 0 0  
Month to date cooling degree days 0 0  
Year to date cooling degree days 1318 1150  
Moisture  
Dew Point 44 °F    
Average Humidity 72    
Maximum Humidity 93    
Minimum Humidity 51    
Precipitation  
Precipitation 0.44 in 0.13 in 0.55 in (1992)
Month to date precipitation 0.58 1.48  
Year to date precipitation 45.34 41.68  
Snow  
Snow T in 0.00 in - ()
Month to date snowfall T 0.1  
Since 1 July snowfall 1.1 0.2  
Since 1 September snowfall 1.1 0.2  
Snow Depth 0.00 in    
Sea Level Pressure  
Sea Level Pressure 30.22 in    
Wind  
Wind Speed 4 mph (West)    
Max Wind Speed 16 mph    
Max Gust Speed 30 mph    
Visibility 7 miles    
Events Rain    
T = Trace of Precipitation, MM = Missing Value Source: NWS Daily Summary

Daily Weather History Graph

Daily Weather History Graph

Search for Another Location

Airport or City:

Trip Planner

Search our weather history database for the weather conditions in past years. The results will help you decide how hot, cold, wet, or windy it might be!

Date:

Astronomy

Nov. 12, 2012 Rise Set
Actual Time 7:10 AM EST 5:24 PM EST
Civil Twilight 6:42 AM EST 5:51 PM EST
Nautical Twilight 6:11 AM EST 6:23 PM EST
Astronomical Twilight 5:40 AM EST 6:54 PM EST
Moon 5:35 AM EST (11/12) 4:27 PM EST (11/12)
Length of Visible Light 11h 09m
Length of Day
10h 13m
Waning Crescent, 2% of the Moon is Illuminated
Nov 12
Waning Crescent
Nov 13
New
Nov 20
First Quarter
Nov 28
Full
Dec 6
Last Quarter

Hourly Weather History & Observations

Time (EST) Temp. Windchill Dew Point Humidity Pressure Visibility Wind Dir Wind Speed Gust Speed Precip Events Conditions
12:53 AM 60.1 °F - 43.0 °F 53% 30.16 in 10.0 mi Variable 3.5 mph - N/A   Clear
1:53 AM 59.0 °F - 44.1 °F 58% 30.14 in 10.0 mi Calm Calm - N/A   Clear
2:53 AM 59.0 °F - 44.1 °F 58% 30.15 in 10.0 mi Variable 3.5 mph - N/A   Clear
3:53 AM 60.1 °F - 45.0 °F 57% 30.14 in 10.0 mi Variable 3.5 mph - N/A   Clear
4:53 AM 59.0 °F - 45.0 °F 60% 30.13 in 10.0 mi SW 3.5 mph - N/A   Clear
5:53 AM 59.0 °F - 46.0 °F 62% 30.13 in 10.0 mi SW 3.5 mph - N/A   Clear
6:53 AM 57.2 °F - 46.4 °F 67% 30.16 in 10.0 mi Variable 4.6 mph - N/A   Clear
7:53 AM 59.0 °F - 46.9 °F 64% 30.16 in 10.0 mi South 4.6 mph - N/A   Mostly Cloudy
8:53 AM 59.0 °F - 48.0 °F 67% 30.16 in 10.0 mi Variable 5.8 mph - 0.00 in Rain Light Rain
9:53 AM 61.0 °F - 48.9 °F 64% 30.14 in 10.0 mi Calm Calm - 0.00 in   Overcast
10:53 AM 63.0 °F - 48.9 °F 60% 30.09 in 10.0 mi Variable 3.5 mph - N/A   Mostly Cloudy
11:53 AM 64.9 °F - 48.0 °F 54% 30.08 in 10.0 mi Calm Calm - 0.00 in   Overcast
12:53 PM 64.0 °F - 48.9 °F 58% 30.05 in 10.0 mi Variable 3.5 mph - 0.00 in   Overcast
1:20 PM 57.2 °F - 51.8 °F 82% 30.12 in 1.8 mi West 12.7 mph 24.2 mph 0.03 in Rain Heavy Rain
1:24 PM 55.4 °F - 51.8 °F 88% 30.12 in 1.0 mi West 12.7 mph 24.2 mph 0.06 in Rain Heavy Rain
1:34 PM 53.6 °F - 51.8 °F 94% 30.12 in 1.8 mi West 12.7 mph 19.6 mph 0.12 in Rain Rain
1:38 PM 51.8 °F - 51.8 °F 100% 30.12 in 2.0 mi West 11.5 mph 18.4 mph 0.12 in Rain Rain
1:53 PM 51.1 °F - 50.0 °F 96% 30.12 in 2.5 mi Variable 3.5 mph - 0.16 in Rain Rain
2:04 PM 51.8 °F - 50.0 °F 94% 30.14 in 3.0 mi WNW 6.9 mph - 0.01 in Rain Light Rain
2:24 PM 50.0 °F - 48.2 °F 94% 30.15 in 2.0 mi WSW 5.8 mph - 0.03 in Rain Rain
2:32 PM 50.0 °F - 50.0 °F 100% 30.15 in 1.5 mi West 8.1 mph - 0.06 in Rain Rain
2:39 PM 50.0 °F - 48.2 °F 94% 30.16 in 1.8 mi West 11.5 mph 25.3 mph 0.07 in Rain Rain
2:53 PM 48.9 °F - 46.9 °F 93% 30.17 in 1.2 mi West 9.2 mph 24.2 mph 0.11 in Rain Heavy Rain
3:00 PM 48.2 °F - 46.4 °F 93% 30.19 in 1.2 mi West 9.2 mph 28.8 mph 0.03 in Rain Rain
3:07 PM 48.2 °F - 46.4 °F 93% 30.19 in 1.8 mi Variable 6.9 mph 28.8 mph 0.05 in Rain Rain
3:12 PM 48.2 °F - 46.4 °F 93% 30.19 in 3.0 mi West 11.5 mph 21.9 mph 0.06 in Rain Light Rain
3:53 PM 46.9 °F - 45.0 °F 93% 30.22 in 2.0 mi WNW 9.2 mph 19.6 mph 0.11 in Rain Rain
4:00 PM 46.4 °F 41.1 °F 44.6 °F 93% 30.23 in 3.0 mi WNW 11.5 mph 20.7 mph 0.01 in Rain Light Rain
4:22 PM 44.6 °F 39.7 °F 42.8 °F 93% 30.26 in 6.0 mi West 9.2 mph 16.1 mph 0.01 in Rain Light Rain
4:48 PM 44.6 °F 41.4 °F 42.8 °F 93% 30.27 in 5.0 mi Variable 5.8 mph - 0.04 in Rain Light Rain
4:53 PM 44.1 °F 41.5 °F 43.0 °F 96% 30.27 in 6.0 mi WSW 4.6 mph - 0.04 in Rain Light Rain
5:30 PM 41.0 °F 36.4 °F 39.2 °F 93% 30.30 in 8.0 mi Variable 6.9 mph - 0.02 in Rain Light Rain
5:42 PM 41.0 °F 39.0 °F 39.2 °F 93% 30.30 in 10.0 mi Variable 3.5 mph 16.1 mph 0.02 in Rain Light Rain
5:53 PM 39.9 °F 35.1 °F 37.9 °F 93% 30.31 in 10.0 mi Variable 6.9 mph - 0.02 in Rain Light Rain
6:53 PM 39.0 °F 35.7 °F 35.1 °F 86% 30.32 in 10.0 mi Variable 4.6 mph - 0.00 in Rain Light Rain
7:53 PM 39.0 °F - 36.0 °F 89% 30.33 in 10.0 mi Calm Calm - 0.00 in   Mostly Cloudy
8:45 PM 37.4 °F 32.8 °F 35.6 °F 93% 30.36 in 10.0 mi WNW 5.8 mph - N/A   Mostly Cloudy
8:53 PM 37.9 °F 34.4 °F 35.1 °F 89% 30.37 in 10.0 mi WNW 4.6 mph - N/A   Mostly Cloudy
9:18 PM 37.4 °F 31.4 °F 33.8 °F 87% 30.37 in 10.0 mi West 8.1 mph - N/A   Scattered Clouds
9:32 PM 35.6 °F 31.7 °F 35.6 °F 100% 30.38 in 10.0 mi Variable 4.6 mph - N/A   Mostly Cloudy
9:44 PM 35.6 °F 31.7 °F 33.8 °F 93% 30.39 in 10.0 mi West 4.6 mph - N/A   Mostly Cloudy
9:53 PM 35.1 °F 31.0 °F 33.1 °F 92% 30.40 in 10.0 mi Variable 4.6 mph - N/A   Scattered Clouds
10:53 PM 34.0 °F 29.8 °F 30.9 °F 89% 30.41 in 10.0 mi West 4.6 mph - N/A   Clear
11:53 PM 33.1 °F 30.0 °F 30.9 °F 92% 30.43 in 10.0 mi WSW 3.5 mph - N/A   Clear